CZ-6A DEB, 61826

Orbit data source: Space-Track

CZ-6A DEB, 61826 is space debris in LEO originally from a launch on Tue, 06 Aug 2024 UTC launched from the Taiyaun Space Center, China (TSC). Debris objects in space refer to the collection of defunct objects orbiting the Earth. Examples of debris include non-operational satellites, rocket bodies, and fragments generated from explosions, collisions, or faulty payload assembly.

Loading next visibility...
Identifier
61826, 2024-140ACS
Orbit
LEO
Country
Flag of CNCN / PRC
Related business
Manufacturer
SAST
Mission
Spacecraft
Bus & Motor
Unknown
Mass
Unknown
Launch date (UTC)
2024-08-06 (2 years ago)
Launch vehicle
Unknown
Launch site
Taiyaun Space Center, China (TSC)
Object type
Payload
Rocket body
Debris
Shape & HBR
Unknown shape, 0.1 m
Radar Cross Section
Medium (>0.1 m² and <1 m²)

Expand to show TLE details & history
Last TLE update: 14 hours ago

TLE from 14 hours ago
0 CZ-6A DEB
1 61826U 24140ACS 26171.27050942  .00001279  00000-0  49526-3 0  9998
2 61826  89.0439 276.7730 0020724  88.8189 271.5380 14.29385787 92356
Epoch: 2026-06-20T06:29Z
TLE epoch observation values (Epoch: 2026-06-20T06:29:32.013Z)
Latitude
-0.00009°
Longitude
-89.09793°
Altitude
796.483 km
Speed
7.455 km/s
True Right ascension
18h 27m 05s
True Declination
0° 00' 00"
Sunlit
Object was in full shadow at epoch
Visualization orbit readout
Latitude
Unknown
Longitude
Unknown
Altitude
Unknown
Speed
Unknown
Apparent Right ascension
Unknown
Apparent Declination
Unknown
Sunlit
N/A
Visualization observer readout
Local Sidereal Time
07:21:15
Azimuth
Unknown
Elevation
Unknown
Doppler factor
Unknown
Orbital elements
Apogee altitude
805.579 km
Perigee altitude
775.865 km
Semi-major axis
7,168.859 km
Eccentricity
0.00207
Inclination
89.0439°
RAAN
276.773°
Arg. of periapsis
88.8189°
True anomaly
271.30059°
Mean anomaly
271.538°
Eccentric anomaly
271.4193°
Mean motion
3.57576 °/min
Orbital period
100.68 mins
BSTAR
0.00049526
Loading maneuver chart data...
Computing Atmospheric mass density...
Loading historical data...
Loading historical data...
Loading historical data...
Loading historical data...
Loading historical data...
Loading historical data...
Loading historical data...

Documentation

Showing up to 5 results
|